www.pogodaiklimat.ru

Погода и климат >> Архив погоды >> Словения >> Порторож


ПОГОДА в Портороже

  • Прогноз погоды в Портороже
  • Монитор погоды в Портороже

АРХИВ ПОГОДЫ в Портороже

Время (UTC), дата Ветер
(напр.,м/с)
 
Видим.   Явления Облачность Т
(С)
Тd
(С)
f
(%)
Тe
(С)
Тes
(С)
Комфортность P
(гПа)
Po
(гПа)
Тmin
(С)
Tmax
(С)
R
(мм)
R24
(мм)
S
(см)
07 11.02 СВ 7 10 км слаб. дождь 9/9 600 м
[Frnb]
+6.2 +4.4 88 +1 +1 1006.9 1006.5
08 11.02 В 5
{11}
50 км в посл. час дождь 9/5 1500 м
[Sc Ac As]
+8.4 +2.0 64 +5 +5 1006.5 1006.1
09 11.02 В 3
{6}
50 км 5/0
[Ac trans]
+8.3 +2.7 68 +6 +8 1007.2 1006.8
10 11.02 СВ 5
{8}
50 км 5/0
[Ac trans Ci sp]
+11.4 +1.8 52 +9 +11 1007.9 1007.5
11 11.02 СЗ 5
{6}
50 км 9/0
[Ac As]
+11.2 +4.5 63 +9 +10 1008.9 1008.5
12 11.02 СЗ 5
{8}
50 км {дождь, морось} 9/1 1000 м
[Cu hum Ac As Ci sp]
+9.4 +5.0 74 +6 +8 1009.5 1009.1 4
13 11.02 СЗ 5
{7}
10 км 8/1 1000 м
[Cu hum Ac trans Ci sp]
+10.1 +6.6 79 +7 +8 1010.0 1009.6
14 11.02 СЗ 4
{6}
20 км 8/1 1000 м
[Cu hum Ac trans Ci sp]
+10.5 +7.0 79 +8 +9 1010.7 1010.3
15 11.02 СЗ 2
{4}
20 км 9/1 1000 м
[Cu med, cong Ac trans Ci sp]
+9.9 +6.9 82 +8 +9 1011.8 1011.4
16 11.02 В 2
{6}
50 км 9/3 900 м
[Cu med, cong Ac As]
+9.9 +3.4 64 +9 +9 1013.0 1012.6
17 11.02 ЮЗ 1
{2}
50 км 9/1 900 м
[Cu hum Ac trans Cs]
+8.5 +2.7 67 +8 +8 1013.8 1013.4
18 11.02 штиль 0
{5}
20 км 4/0
[Ci sp]
+7.4 +4.9 84 +7 +7 1014.6 1014.2 +11.7 4
19 11.02 ЮВ 3
{5}
50 км 8/0
[Cs]
+5.8 +4.0 88 +2 +2 1015.6 1015.2
20 11.02 ЮВ 4
{5}
50 км 9/0
[Cs]
+5.0 +3.4 89 +1 +1 1016.8 1016.4
21 11.02 ЮВ 4
{5}
40 км 8/0
[Cs]
+4.5 +3.1 91 0 0 1017.6 1017.2
22 11.02 ЮВ 5
{6}
29 км н/о +4.1 +3.0 93 -1 -1 1018.1 1017.7
23 11.02 ЮВ 5
{6}
24 км н/о +3.7 +2.5 92 -2 -2 1018.7 1018.3
00 12.02 ЮВ 5
{6}
18 км н/о +3.3 +2.2 92 -2 -2 1019.6 1019.2
01 12.02 ЮВ 5
{6}
11 км н/о +2.6 +1.7 94 -3 -3 1020.1 1019.7
02 12.02 ЮВ 5
{6}
7000 м дымка н/о +2.3 +1.5 94 -3 -3 1020.4 1020.0
03 12.02 ЮВ 4
{6}
5000 м дымка н/о +2.2 +1.6 96 -3 -3 1020.7 1020.3
04 12.02 ЮВ 5
{6}
3800 м дымка н/о +2.8 +2.2 96 -3 -3 1021.1 1020.7
05 12.02 ЮВ 5
{6}
600 м туман 9/9 <50 м
[St]
+3.2 +3.0 99 -2 -2 1021.6 1021.2
06 12.02 ЮВ 4
{5}
400 м туман 8/8 30 м
[St]
+2.5 +2.4 99 -3 -3 1022.2 1021.8 +2.0
07 12.02 В 4
{6}
2500 м дымка 4/4 90 м
[St Ci fib]
+1.7 +1.6 99 -4 -3 1022.8 1022.4
08 12.02 ЮВ 4
{5}
20 км 6/1 90 м
[St Ci sp]
+4.5 +2.8 89 0 +1 1023.3 1022.9
09 12.02 ЮВ 3
{4}
40 км 6/1 90 м
[St Ci sp]
+5.4 +2.7 83 +2 +5 1023.5 1023.1
10 12.02 С 1
{3}
35 км 5/0
[Ci sp]
+9.0 +4.2 72 +9 +14 1023.5 1023.1
11 12.02 СЗ 2
{4}
40 км 5/0
[Ci sp]
+11.2 +2.9 57 +10 +16 1023.4 1023.0
12 12.02 З 1
{2}
40 км 5/0
[Ci sp]
+11.9 -3.1 35 +12 +18 1023.5 1023.1
13 12.02 СЗ 3
{3}
40 км 4/0
[Ci sp]
+12.1 +3.2 54 +11 +14 1023.5 1023.1
14 12.02 З 3
{6}
40 км 1/1 1200 м
[Cu hum Ci fib]
+12.2 +0.9 46 +11 +11 1024.2 1023.8
15 12.02 ЮЗ 4
{5}
15 км 1/0
[Ac trans Ci fib]
+11.4 +5.3 66 +9 +10 1024.8 1024.4
16 12.02 Ю 2
{6}
40 км 1/0
[Ac trans Ci fib]
+10.2 +4.2 66 +9 +9 1025.3 1024.9
17 12.02 ЮВ 2
{2}
30 км 1/0
[Ci fib]
+7.6 +3.4 75 +6 +6 1026.6 1026.2
18 12.02 ЮВ 4
{4}
30 км ясно +4.5 +2.2 85 0 0 1027.9 1027.5 +12.5
19 12.02 ЮВ 5
{6}
20 км ясно +3.8 +2.0 88 -1 -1 1028.9 1028.5
20 12.02 ЮВ 5
{6}
15 км ясно +3.4 +1.7 89 -2 -2 1029.7 1029.3
21 12.02 ЮВ 3
{5}
15 км ясно +2.1 +0.4 88 -2 -2 1030.6 1030.2
22 12.02 ЮВ 4
{4}
45 км н/о +1.5 -1.6 80 -4 -4 1031.5 1031.1
23 12.02 ЮВ 4
{5}
50 км н/о +0.5 -2.6 80 -5 -5 1032.0 1031.6
00 13.02 ЮВ 4
{6}
50 км н/о +0.2 -3.3 77 -5 -5 1032.8 1032.3
01 13.02 ЮВ 4
{5}
50 км н/о -0.2 -3.8 77 -6 -6 1033.3 1032.8
02 13.02 ЮВ 6
{7}
50 км н/о +0.1 -4.5 71 -6 -6 1033.1 1032.6
03 13.02 ЮВ 5
{6}
50 км н/о -0.2 -4.8 71 -6 -6 1033.3 1032.8
04 13.02 ЮВ 3
{6}
50 км н/о 0.0 -5.0 69 -4 -4 1034.0 1033.5
05 13.02 ЮВ 2
{3}
50 км ясно -0.8 -5.1 73 -4 -4 1034.5 1034.0
06 13.02 ЮВ 3
{4}
50 км 3/3 1500 м
[Sc Ac trans]
-1.4 -4.7 78 -6 -6 1034.9 1034.4 -1.6
07 13.02 ЮВ 5
{6}
50 км 3/3 1500 м
[Sc Ac trans]
+0.1 -4.9 69 -6 -5 1035.8 1035.3
08 13.02 ЮВ 4
{6}
50 км 3/1 1500 м
[Sc Ac trans Ci fib]
+2.6 -3.8 63 -2 -1 1036.0 1035.6
09 13.02 В 1
{3}
50 км 4/4 1500 м
[Sc Ac trans Ci fib]
+6.8 -1.8 54 +6 +9 1036.3 1035.9
10 13.02 СЗ 1
{2}
50 км 3/1 1500 м
[Sc Ci fib]
+8.4 -1.1 51 +8 +14 1036.6 1036.2
11 13.02 З 3
{3}
50 км 1/0
[Ci fib]
+9.8 +1.5 56 +8 +13 1036.2 1035.8
12 13.02 СЗ 4
{5}
45 км н/о +10.0 +0.8 53 +8 +8 1035.6 1035.2
13 13.02 СЗ 3
{4}
50 км 1/0
[Ci fib]
+10.4 +1.2 53 +9 +12 1035.5 1035.1
14 13.02 СЗ 3
{5}
50 км 1/0
[Ci fib]
+9.7 +1.1 55 +8 +10 1035.2 1034.8
15 13.02 СЗ 3
{4}
50 км ясно +9.5 +1.7 58 +8 +8 1035.2 1034.8
16 13.02 З 2
{3}
50 км ясно +8.7 +2.0 63 +7 +7 1035.7 1035.3
17 13.02 ЮВ 1
{2}
50 км ясно +6.4 +1.3 70 +6 +6 1036.3 1035.9
18 13.02 ЮВ 3
{4}
50 км ясно +3.6 +0.6 81 -0 -0 1036.9 1036.5 +10.4
19 13.02 ЮВ 4
{5}
40 км ясно +3.0 +0.4 83 -2 -2 1036.8 1036.4
20 13.02 ЮВ 4
{5}
30 км ясно +2.1 +0.2 87 -3 -3 1037.1 1036.7
21 13.02 ЮВ 4
{5}
30 км 6/0
[Cs]
+1.5 -0.1 89 -4 -4 1037.7 1037.2
22 13.02 ЮВ 4
{5}
40 км н/о +1.7 -0.1 88 -3 -3 1037.6 1037.1
23 13.02 ЮВ 4
{5}
35 км н/о +1.5 -0.2 88 -4 -4 1037.6 1037.1
00 14.02 ЮВ 5
{6}
40 км н/о +1.4 -0.3 88 -4 -4 1037.5 1037.0
01 14.02 ЮВ 3
{5}
35 км н/о +1.0 -0.5 90 -4 -4 1037.4 1036.9
02 14.02 ЮВ 4
{5}
29 км н/о +0.2 -0.8 93 -5 -5 1036.9 1036.4
03 14.02 ЮВ 4
{6}
26 км н/о +0.4 -0.8 92 -5 -5 1036.5 1036.0
04 14.02 ЮВ 4
{5}
24 км н/о +0.8 -0.7 90 -5 -5 1036.3 1035.8
05 14.02 ЮВ 3
{5}
20 км ясно -0.1 -1.1 93 -5 -5 1036.1 1035.6
06 14.02 ЮВ 3
{5}
15 км 5/0
[Ac trans Cs]
+0.1 -0.9 93 -5 -5 1036.2 1035.7 -0.3
07 14.02 ЮВ 3
{4}
15 км 4/0
[Ac trans Cs]
+0.6 -0.6 92 -4 -4 1036.2 1035.7
08 14.02 ЮВ 2
{4}
25 км 4/0
[Ac trans Ci sp]
+3.5 +0.7 82 +1 +3 1035.8 1035.4
09 14.02 В 1
{2}
40 км 5/0
[Ci sp]
+7.3 +2.2 70 +7 +11 1035.2 1034.8
10 14.02 З 2
{2}
30 км 5/0
[Ac trans Ci sp]
+7.8 +3.5 74 +6 +11 1035.2 1034.8
11 14.02 СЗ 3
{4}
30 км 4/0
[Ac trans Ci sp]
+9.2 +3.8 69 +7 +12 1034.7 1034.3
12 14.02 СЗ 4
{4}
30 км 3/0
[Ac trans Ci sp]
+9.7 +3.6 66 +7 +11 1034.3 1033.9
13 14.02 СЗ 2
{4}
30 км 1/0
[Ac trans Ci sp]
+10.6 +1.1 52 +10 +14 1033.4 1033.0
14 14.02 СЗ 3
{4}
30 км 3/0
[Ac trans Ci sp]
+10.5 +2.0 56 +9 +11 1033.1 1032.7
15 14.02 СЗ 3
{3}
30 км 3/0
[Ac trans Ci fib]
+9.6 +2.8 63 +8 +8 1032.8 1032.4
16 14.02 С 2
{3}
30 км 3/0
[Ac trans Ci sp]
+9.3 +1.8 59 +8 +8 1032.8 1032.4
17 14.02 З 1
{2}
20 км 1/0
[Ac trans Ci fib]
+6.6 +4.2 85 +6 +6 1033.2 1032.8
18 14.02 В 3
{3}
21 км н/о +4.3 +1.2 80 +1 +1 1033.1 1032.7 +11.2
19 14.02 ЮВ 3
{4}
20 км 1/0
[Ac trans Ci fib]
+3.3 +0.3 81 -1 -1 1033.1 1032.7
20 14.02 ЮВ 3
{5}
17 км 1/0
[Ci fib]
+2.3 -0.2 84 -2 -2 1032.9 1032.5
21 14.02 ЮВ 4
{5}
17 км 1/0
[Ci fib]
+2.5 -0.2 82 -2 -2 1032.7 1032.3
22 14.02 ЮВ 3
{4}
14 км н/о +1.8 -0.4 85 -2 -2 1032.7 1032.3
23 14.02 ЮВ 4
{5}
15 км н/о +2.0 -0.1 86 -3 -3 1032.7 1032.3
00 15.02 ЮВ 4
{6}
20 км н/о +2.2 0.0 85 -3 -3 1032.4 1032.0
01 15.02 ЮВ 5
{6}
30 км н/о +2.4 -0.4 82 -3 -3 1032.5 1032.1
02 15.02 ЮВ 4
{6}
40 км н/о +1.9 -0.8 82 -3 -3 1032.1 1031.7
03 15.02 ЮВ 4
{6}
45 км н/о +1.7 -1.0 82 -3 -3 1031.9 1031.5
04 15.02 ЮВ 4
{6}
45 км н/о +0.7 -1.4 86 -5 -5 1031.7 1031.3
05 15.02 ЮВ 3
{5}
50 км ясно +0.7 -1.6 85 -4 -4 1031.6 1031.2
06 15.02 ЮВ 3
{5}
50 км 1/0
[Ci fib]
+0.8 -1.5 85 -4 -4 1031.7 1031.3 +0.2
07 15.02 ЮВ 4
{5}
50 км 6/0
[Ci sp]
+1.4 -1.2 83 -4 -3 1032.0 1031.6
08 15.02 ЮВ 3
{5}
50 км 4/0
[Ci sp]
+4.6 +0.4 74 +1 +3 1032.2 1031.8
09 15.02 В 1
{4}
50 км 5/0
[Ci sp]
+9.1 +1.9 61 +9 +13 1032.3 1031.9
10 15.02 СЗ 1
{2}
50 км 4/0
[Ci fib]
+10.9 +2.0 54 +11 +17 1031.9 1031.5
11 15.02 СЗ 4
{4}
50 км 3/0
[Ci fib]
+10.8 +3.5 61 +9 +13 1031.4 1031.0
12 15.02 СЗ 5
{6}
40 км 3/0
[Ci fib]
+11.3 +6.4 72 +9 +12 1030.9 1030.5
13 15.02 СЗ 4
{6}
50 км 3/0
[Ci fib]
+12.4 +3.2 53 +11 +14 1030.6 1030.2
14 15.02 СЗ 2
{3}
50 км 3/0
[Ci sp]
+13.0 +3.4 52 +13 +15 1030.6 1030.2
15 15.02 ЮЗ 3
{5}
50 км 3/0
[Ci fib]
+13.3 +6.0 61 +12 +13 1031.1 1030.7
16 15.02 Ю 4
{7}
45 км 1/0
[Ci fib]
+11.7 +3.5 57 +10 +10 1031.7 1031.3
17 15.02 В 1
{3}
40 км ясно +10.0 +4.1 67 +10 +10 1032.5 1032.1
18 15.02 ЮВ 2
{3}
30 км ясно +6.2 +2.6 78 +4 +4 1032.7 1032.3 +14.2
19 15.02 ЮВ 3
{4}
30 км ясно +4.8 +2.2 83 +1 +1 1032.5 1032.1
20 15.02 ЮВ 3
{4}
25 км ясно +3.8 +1.8 87 0 0 1032.6 1032.2
21 15.02 ЮВ 3
{4}
25 км ясно +4.5 +2.0 84 +1 +1 1032.3 1031.9
22 15.02 В 1
{2}
28 км н/о +3.4 +1.5 87 +2 +2 1032.1 1031.7
23 15.02 В 2
{3}
29 км н/о +2.6 +0.5 86 -1 -1 1032.2 1031.8
00 16.02 ЮВ 3
{4}
35 км н/о +2.4 0.0 84 -2 -2 1032.5 1032.1
01 16.02 ЮВ 3
{4}
40 км н/о +1.7 -0.6 85 -3 -3 1032.4 1032.0
02 16.02 ЮВ 3
{4}
35 км н/о +0.9 -0.8 88 -4 -4 1031.8 1031.4
03 16.02 ЮВ 3
{5}
45 км н/о +1.3 -1.0 85 -3 -3 1031.5 1031.1
04 16.02 ЮВ 2
{5}
35 км н/о +0.8 -0.9 88 -3 -3 1031.5 1031.1
05 16.02 ЮВ 1
{3}
40 км ясно +1.0 -1.2 85 -1 -1 1031.1 1030.7
06 16.02 ЮВ 4
{5}
40 км 1/0
[Ci sp]
+1.1 -1.4 83 -4 -4 1031.1 1030.7 +0.7
07 16.02 ЮВ 3
{4}
40 км 1/0
[Ci sp]
+1.4 -1.1 83 -3 -2 1031.7 1031.3
08 16.02 ЮВ 2
{3}
40 км 1/0
[Ci sp]
+4.4 +0.2 74 +2 +4 1031.6 1031.2
09 16.02 штиль 0
{2}
50 км 1/0
[Ci sp]
+9.4 +0.7 55 +9 +15 1031.5 1031.1
10 16.02 СЗ 2
{3}
40 км 1/0
[Ci fib]
+9.8 +3.4 64 +9 +14 1031.5 1031.1
11 16.02 З 3
{4}
40 км 1/0
[Ci fib]
+10.8 +5.0 67 +9 +14 1031.5 1031.1
12 16.02 СЗ 3
{3}
40 км 1/0
[Ci fib]
+11.6 +4.0 60 +10 +15 1031.2 1030.8
13 16.02 СЗ 3
{4}
50 км 1/0
[Ci fib]
+12.5 +4.2 57 +11 +15 1030.6 1030.2
14 16.02 СЗ 2
{3}
50 км 1/0
[Ci fib]
+13.3 +2.8 49 +13 +16 1030.1 1029.7
15 16.02 СЗ 1
{2}
40 км 1/0
[Ci sp]
+13.3 +3.8 53 +14 +15 1029.8 1029.4
16 16.02 штиль 0
{1}
30 км 1/0
[Ci sp]
+12.1 +4.2 58 +12 +12 1029.4 1029.0
17 16.02 СВ 1
{2}
20 км 1/0
[Ci fib]
+8.3 +3.4 71 +8 +8 1029.4 1029.0
18 16.02 ЮВ 2
{3}
20 км 1/0
[Ci fib]
+6.4 +2.1 74 +4 +4 1029.6 1029.2 +13.6
19 16.02 ЮВ 3
{4}
15 км 1/0
[Ci fib]
+4.6 +1.5 80 +1 +1 1029.7 1029.3
20 16.02 ЮВ 3
{4}
15 км 1/0
[Ci fib]
+3.8 +1.3 84 0 0 1029.7 1029.3
21 16.02 ЮВ 3
{4}
15 км 1/0
[Ci fib]
+3.2 +0.9 85 -1 -1 1029.6 1029.2
22 16.02 ЮВ 4
{5}
13 км н/о +2.9 +0.9 87 -2 -2 1029.4 1029.0
23 16.02 ЮВ 4
{5}
10 км н/о +2.3 +0.7 89 -3 -3 1029.4 1029.0
00 17.02 ЮВ 3
{5}
10 км н/о +2.2 +0.8 90 -2 -2 1029.1 1028.7
01 17.02 ЮВ 4
{5}
10 км н/о +1.8 +0.5 91 -3 -3 1029.0 1028.6
02 17.02 ЮВ 4
{5}
8000 м дымка н/о +1.6 +0.4 92 -4 -4 1028.6 1028.2
03 17.02 ЮВ 3
{6}
6000 м дымка н/о +1.5 +0.4 92 -3 -3 1028.1 1027.7
04 17.02 ЮВ 4
{4}
7000 м дымка н/о +1.1 -0.1 92 -4 -4 1028.1 1027.7
05 17.02 ЮВ 3
{4}
7000 м дымка ясно +0.6 -0.1 95 -4 -4 1028.1 1027.7
06 17.02 ЮВ 5
{6}
10 км ясно +0.6 -0.8 90 -5 -5 1028.1 1027.7 +0.1
07 17.02 ЮВ 4
{6}
15 км ясно +1.3 0.0 91 -4 -3 1028.4 1028.0
08 17.02 ЮВ 2
{4}
20 км ясно +4.8 +1.1 77 +2 +5 1028.9 1028.5
09 17.02 В 1
{2}
20 км ясно +9.8 +4.1 68 +10 +15 1028.6 1028.2
10 17.02 З 1
{1}
20 км ясно +11.4 +4.3 62 +11 +18 1028.5 1028.1
11 17.02 З 2
{3}
15 км ясно +10.6 +6.6 76 +9 +16 1028.0 1027.6
12 17.02 З 2
{3}
15 км ясно +11.9 +7.0 72 +11 +17 1027.2 1026.8
13 17.02 СЗ 3
{4}
10 км ясно +13.0 +7.3 68 +12 +16 1026.7 1026.3
14 17.02 СЗ 2
{4}
10 км 1/0
[Ci fib]
+12.9 +6.3 64 +12 +15 1026.2 1025.8
15 17.02 СЗ 2
{3}
10 км ясно +11.8 +7.2 73 +11 +12 1025.9 1025.5
16 17.02 СЗ 2
{2}
10 км ясно +10.4 +6.5 77 +9 +9 1025.7 1025.3
17 17.02 штиль 0
{1}
6000 м дымка ясно +7.9 +5.9 87 +7 +7 1025.8 1025.4
18 17.02 ЮВ 3
{4}
6000 м дымка ясно +5.1 +3.2 88 +2 +2 1026.0 1025.6 +13.4
19 17.02 ЮВ 4
{4}
6000 м дымка ясно +3.9 +2.5 91 -1 -1 1025.8 1025.4
20 17.02 ЮВ 4
{5}
5000 м ясно +3.8 +2.2 89 -1 -1 1025.8 1025.4
21 17.02 ЮВ 3
{4}
5000 м дымка ясно +3.3 +1.9 91 -1 -1 1026.0 1025.6
22 17.02 ЮВ 4
{5}
5000 м дымка н/о +2.6 +1.3 91 -2 -2 1025.9 1025.5
23 17.02 ЮВ 4
{5}
5000 м дымка н/о +1.7 +0.7 93 -4 -4 1025.8 1025.4
00 18.02 ЮВ 4
{5}
5000 м дымка н/о +1.8 +0.7 92 -3 -3 1025.6 1025.2
01 18.02 ЮВ 4
{5}
5000 м дымка н/о +1.5 +0.4 92 -4 -4 1025.5 1025.1
02 18.02 ЮВ 4
{5}
4900 м дымка н/о +0.7 -0.2 94 -5 -5 1025.1 1024.7
03 18.02 ЮВ 5
{6}
6000 м дымка н/о +0.8 -0.4 92 -5 -5 1024.8 1024.4
04 18.02 ЮВ 5
{6}
6000 м дымка н/о +1.0 -0.4 90 -5 -5 1024.7 1024.3
05 18.02 ЮВ 4
{6}
6000 м дымка ясно +0.7 -0.4 92 -5 -5 1024.6 1024.2
06 18.02 ЮВ 4 7000 м дымка ясно +0.9 -0.6 90 -4 -4 1024.8 1024.4 +0.5
07 18.02 ЮВ 4
{5}
10 км ясно +1.8 -0.3 86 -3 -3 1025.1 1024.7

 

Местоположение метеостанции Порторож (Словения): широта 45.52 долгота 13.57 высота над уровнем моря 95 м.

В архиве по умолчанию представлена погода в Портороже за последнюю неделю. Архивные данные за месяц целиком и за предыдущие месяцы, начиная с января 2011 года, Вы можете получить, выбрав интересующий диапазон дат из раскрывающегося списка и нажав кнопку "Ввод!".


*Определитесь, кто Вы:
робот инопланетянин человек

Внимание! Время в таблицах - всемирное. Для получения местного времени необходимо прибавить поправку, которая равна 1 ч.

Смотрите также архив погоды в соседних городах и на ближайших метеорологических станциях:

Погода в Триесте (Италия) (20 км)
Погода в Ронки-деи-Леджонари (Италия) (34 км)
Погода в Новой Горице (Словения) (43 км)
Погода в Пазине (Хорватия) (43 км)
Погода в Постойнской (Словения) (56 км)
Погода в Конкордия-Саджиттарии (Италия) (62 км)
Погода на Войско (Словения) (62 км)
Погода на Базе ВВС Риволто (Италия) (66 км)
Погода в Риеке (Хорватия) (72 км)
Погода в Пуле (Хорватия) (74 км)

Пояснения к столбцам:

Ветер - указаны скорость ветра в м/с - средняя за 10 мин, порывы в срок и между сроками (в фигурных скобках) и направление, откуда дует ветер: С - северный, СВ - северо-восточный, В - восточный, ЮВ - юго-восточный, Ю - южный, ЮЗ - юго-западный, З - западный, СЗ - северо-западный.
Видимость - горизонтальная дальность видимости в метрах или километрах. При видимости от 1 до 10 км при отсутствии осадков обычно наблюдается дымка, при ухудшении видимости до 1 км и менее - туман. В сухую погоду видимость может ухудшаться дымом, пылью или мглою.
Явления - указаны атмосферные явления, наблюдавшиеся в срок или в последний час перед сроком; фигурными скобками обозначены явления, наблюдавшиеся между сроками (за 1-3 часа до срока); квадратными скобками обозначены град или гололедные отложения с указанием их диаметра в мм.
Облачность - указаны через наклонную черту общая и нижняя облачность в баллах и высота нижней границы облаков в метрах; квадратными скобками обозначены формы облаков: Ci - перистые, Cs - перисто-слоистые, Cc - перисто-кучевые, Ac - высококучевые, As - высокослоистые, Sc - слоисто-кучевые, Ns - слоисто-дождевые, Cu - кучевые, Cb - кучево-дождевые. Подробнее классификацию облаков см. в Атласе облаков (PDF).
T - Температура воздуха - температура, измеренная на высоте 2 м над землей.
Td - Температура точки росы - температура, при понижении до которой содержащийся в воздухе водяной пар достигнет насыщения.
f - Относительная влажность воздуха - влажноcть воздуха, измеренная на высоте 2 м над землей.
Te - Эффективная температура - температура, которую ощущает одетый по сезону человек в тени. Характеристика душности погоды. При расчете учитывается влияние влажности воздуха и скорости ветра на теплоощущения человека.
Tes - Эффективная температура на солнце - температура, которую ощущает человек, с поправкой на солнечный нагрев. Характеристика знойности погоды. Зависит от высоты солнца над горизонтом, облачности и скорости ветра. Ночью, в пасмурную погоду, а также при ветре 12 м/с и более поправка равна нулю.
P - Атмосферное давление - приведенное к уровню моря атмосферное давление.
Po - Атмосферное давление - измеренное на уровне метеостанции атмосферное давление.
Tmin - Минимальная температура - минимум температуры воздуха на высоте 2 м над землей.
Tmax - Максимальная температура - максимум температуры воздуха на высоте 2 м над землей.
R - Количество осадков - Количество выпавших осадков за период времени, мм. При наведении курсора мыши на число - период времени, за который выпало указанное количество осадков.
R24 - Количество осадков - Количество выпавших осадков за 24 часа, мм.
S - Снежный покров - Высота снежного покрова, см. При наведении курсора мыши на число - состояние снежного покрова и степень покрытия местности в баллах.